• In Netherlands
  • List of Countries
  • For 7 days
  • Water Temperature
  • Satellite Maps
  • Weather Map
  • Weather Widgets
  • user-avatar
    Login

    Hourly Weather Hamburg

    Today, 21 February, Wednesday

    Time Temperature Precipitation Wind Pressure Humidity
    00:00 -3°C° 0 mm 2 mps 768 mmHg 85%
    01:00 -3°C° 0 mm 2 mps 768 mmHg 85%
    02:00 -3°C° 0 mm 2 mps 768 mmHg 85%
    03:00 -3°C° 0 mm 2 mps 768 mmHg 85%
    04:00 -3°C° 0 mm 2 mps 768 mmHg 85%
    05:00 -3°C° 0 mm 2 mps 768 mmHg 85%
    06:00 -1°C° 0 mm 1 mps 768 mmHg 85%
    07:00 -1°C° 0 mm 1 mps 769 mmHg 84%
    08:00 0°C° 0 mm 1 mps 769 mmHg 78%
    09:00 +1°C° 0 mm 1 mps 769 mmHg 72%
    10:00 +1°C° 0 mm 2 mps 769 mmHg 66%
    11:00 +2°C° 0 mm 2 mps 769 mmHg 62%
    12:00 +3°C° 0 mm 2 mps 769 mmHg 58%
    13:00 +4°C° 0 mm 2 mps 769 mmHg 54%
    14:00 +4°C° 0 mm 2 mps 769 mmHg 55%
    15:00 +3°C° 0 mm 2 mps 768 mmHg 56%
    16:00 +3°C° 0 mm 2 mps 768 mmHg 58%
    17:00 +2°C° 0 mm 2 mps 768 mmHg 65%
    18:00 +1°C° 0 mm 2 mps 769 mmHg 72%
    19:00 -2°C° 0 mm 2 mps 769 mmHg 78%
    20:00 -2°C° 0 mm 2 mps 769 mmHg 81%
    21:00 -2°C° 0 mm 2 mps 769 mmHg 83%
    22:00 -3°C° 0 mm 2 mps 769 mmHg 85%
    23:00 -1°C° 0 mm 1 mps 769 mmHg 85%

    Tomorrow, 22 February, Thursday

    Time Temperature Precipitation Wind Pressure Humidity
    00:00 -1°C° 0 mm 1 mps 769 mmHg 86%
    01:00 -1°C° 0 mm 1 mps 769 mmHg 87%
    02:00 -1°C° 0 mm 1 mps 769 mmHg 87%
    03:00 -1°C° 0 mm 1 mps 769 mmHg 87%
    04:00 -1°C° 0 mm 1 mps 769 mmHg 87%
    05:00 -1°C° 0 mm 1 mps 769 mmHg 86%
    06:00 -1°C° 0 mm 1 mps 769 mmHg 86%
    07:00 -1°C° 0 mm 1 mps 769 mmHg 85%
    08:00 0°C° 0 mm 1 mps 769 mmHg 80%
    09:00 +1°C° 0 mm 1 mps 769 mmHg 75%
    10:00 +1°C° 0 mm 2 mps 769 mmHg 70%
    11:00 +2°C° 0 mm 2 mps 769 mmHg 68%
    12:00 +3°C° 0 mm 2 mps 769 mmHg 65%
    13:00 +2°C° 0 mm 3 mps 769 mmHg 63%
    14:00 +2°C° 0 mm 3 mps 769 mmHg 63%
    15:00 +2°C° 0 mm 3 mps 768 mmHg 62%
    16:00 0°C° 0 mm 4 mps 768 mmHg 62%
    17:00 0°C° 0 mm 3 mps 768 mmHg 67%
    18:00 -1°C° 0 mm 3 mps 768 mmHg 72%
    19:00 -4°C° 0 mm 3 mps 768 mmHg 77%
    20:00 -4°C° 0 mm 3 mps 769 mmHg 78%
    21:00 -4°C° 0 mm 3 mps 769 mmHg 79%
    22:00 -5°C° 0 mm 3 mps 769 mmHg 80%
    23:00 -4°C° 0 mm 2 mps 769 mmHg 81%

    Day after tomorrow, 23 February, Friday

    Time Temperature Precipitation Wind Pressure Humidity
    00:00 -4°C° 0 mm 2 mps 769 mmHg 81%
    01:00 -4°C° 0 mm 2 mps 769 mmHg 82%
    02:00 -4°C° 0 mm 2 mps 769 mmHg 81%
    03:00 -4°C° 0 mm 2 mps 769 mmHg 81%
    04:00 -4°C° 0 mm 2 mps 769 mmHg 81%
    05:00 -4°C° 0 mm 2 mps 769 mmHg 81%
    06:00 -4°C° 0 mm 2 mps 769 mmHg 80%
    07:00 -4°C° 0 mm 2 mps 770 mmHg 80%
    08:00 -3°C° 0 mm 2 mps 770 mmHg 73%
    09:00 -4°C° 0 mm 3 mps 770 mmHg 65%
    10:00 -2°C° 0 mm 3 mps 770 mmHg 58%
    11:00 -1°C° 0 mm 3 mps 770 mmHg 53%
    12:00 0°C° 0 mm 3 mps 770 mmHg 48%
    13:00 +1°C° 0 mm 3 mps 770 mmHg 43%
    14:00 +1°C° 0 mm 3 mps 770 mmHg 44%
    15:00 +1°C° 0 mm 3 mps 770 mmHg 45%
    16:00 0°C° 0 mm 4 mps 770 mmHg 46%
    17:00 0°C° 0 mm 3 mps 770 mmHg 53%
    18:00 -1°C° 0 mm 3 mps 770 mmHg 59%
    19:00 -4°C° 0 mm 3 mps 770 mmHg 66%
    20:00 -4°C° 0 mm 3 mps 771 mmHg 68%
    21:00 -4°C° 0 mm 3 mps 771 mmHg 70%
    22:00 -4°C° 0 mm 3 mps 771 mmHg 72%
    23:00 -4°C° 0 mm 3 mps 771 mmHg 74%

    24 February, Saturday

    Time Temperature Precipitation Wind Pressure Humidity
    00:00 -4°C° 0 mm 3 mps 771 mmHg 75%
    01:00 -4°C° 0 mm 3 mps 771 mmHg 76%
    02:00 -4°C° 0 mm 3 mps 771 mmHg 78%
    03:00 -4°C° 0 mm 3 mps 771 mmHg 79%
    04:00 -4°C° 0 mm 3 mps 771 mmHg 81%
    05:00 -4°C° 0 mm 3 mps 772 mmHg 81%
    06:00 -4°C° 0 mm 4 mps 772 mmHg 82%
    07:00 -4°C° 0 mm 4 mps 772 mmHg 82%
    08:00 -4°C° 0 mm 5 mps 772 mmHg 75%
    09:00 -2°C° 0 mm 5 mps 772 mmHg 68%
    10:00 -2°C° 0 mm 6 mps 773 mmHg 61%
    11:00 -2°C° 0 mm 6 mps 773 mmHg 58%
    12:00 -1°C° 0 mm 6 mps 773 mmHg 55%
    13:00 -1°C° 0 mm 7 mps 773 mmHg 52%
    14:00 -1°C° 0 mm 7 mps 773 mmHg 50%
    15:00 -1°C° 0 mm 7 mps 772 mmHg 49%
    16:00 -2°C° 0 mm 7 mps 772 mmHg 48%
    17:00 -3°C° 0 mm 6 mps 773 mmHg 51%
    18:00 -4°C° 0 mm 6 mps 773 mmHg 55%
    19:00 -5°C° 0 mm 6 mps 774 mmHg 58%
    20:00 -5°C° 0 mm 5 mps 774 mmHg 60%
    21:00 -6°C° 0 mm 5 mps 774 mmHg 61%
    22:00 -6°C° 0 mm 5 mps 775 mmHg 63%
    23:00 -6°C° 0 mm 5 mps 775 mmHg 62%

    25 February, Sunday

    Time Temperature Precipitation Wind Pressure Humidity
    00:00 -7°C° 0 mm 5 mps 775 mmHg 62%
    01:00 -7°C° 0 mm 5 mps 775 mmHg 61%
    02:00 -7°C° 0 mm 5 mps 775 mmHg 60%
    03:00 -7°C° 0 mm 4 mps 775 mmHg 59%
    04:00 -7°C° 0 mm 4 mps 775 mmHg 58%
    05:00 -7°C° 0 mm 4 mps 775 mmHg 57%
    06:00 -6°C° 0 mm 3 mps 775 mmHg 56%
    07:00 -7°C° 0 mm 3 mps 776 mmHg 56%
    08:00 -7°C° 0 mm 4 mps 776 mmHg 53%
    09:00 -5°C° 0 mm 4 mps 776 mmHg 51%
    10:00 -5°C° 0 mm 4 mps 776 mmHg 48%
    11:00 -4°C° 0 mm 4 mps 776 mmHg 46%
    12:00 -4°C° 0 mm 4 mps 776 mmHg 44%
    13:00 -3°C° 0 mm 4 mps 776 mmHg 41%
    14:00 -3°C° 0 mm 4 mps 775 mmHg 41%
    15:00 -3°C° 0 mm 4 mps 775 mmHg 41%
    16:00 -3°C° 0 mm 4 mps 775 mmHg 41%
    17:00 -4°C° 0 mm 3 mps 775 mmHg 46%
    18:00 -5°C° 0 mm 3 mps 775 mmHg 50%
    19:00 -4°C° 0 mm 2 mps 775 mmHg 54%
    20:00 -5°C° 0 mm 2 mps 775 mmHg 56%
    21:00 -5°C° 0 mm 2 mps 775 mmHg 58%
    22:00 -5°C° 0 mm 2 mps 775 mmHg 59%
    23:00 -5°C° 0 mm 2 mps 775 mmHg 61%

    26 February, Monday

    Time Temperature Precipitation Wind Pressure Humidity
    00:00 -5°C° 0 mm 2 mps 775 mmHg 62%
    01:00 -5°C° 0 mm 2 mps 775 mmHg 64%
    02:00 -6°C° 0 mm 2 mps 775 mmHg 66%
    03:00 -6°C° 0 mm 2 mps 775 mmHg 68%
    04:00 -6°C° 0 mm 2 mps 774 mmHg 70%
    05:00 -6°C° 0 mm 2 mps 774 mmHg 71%
    06:00 -6°C° 0 mm 2 mps 774 mmHg 73%
    07:00 -6°C° 0 mm 2 mps 774 mmHg 75%
    08:00 -6°C° 0.1 mm 3 mps 774 mmHg 70%
    09:00 -5°C° 0.1 mm 3 mps 774 mmHg 65%
    10:00 -4°C° 0.1 mm 4 mps 774 mmHg 60%
    11:00 -4°C° 0.1 mm 4 mps 773 mmHg 58%
    12:00 -4°C° 0.1 mm 4 mps 773 mmHg 55%
    13:00 -4°C° 0.1 mm 4 mps 773 mmHg 53%
    14:00 -4°C° 0 mm 4 mps 772 mmHg 52%
    15:00 -4°C° 0 mm 4 mps 772 mmHg 51%
    16:00 -4°C° 0 mm 4 mps 772 mmHg 50%
    17:00 -5°C° 0 mm 4 mps 772 mmHg 55%
    18:00 -6°C° 0 mm 3 mps 771 mmHg 60%
    19:00 -7°C° 0 mm 3 mps 771 mmHg 64%
    20:00 -7°C° 0 mm 3 mps 771 mmHg 66%
    21:00 -6°C° 0 mm 2 mps 771 mmHg 68%
    22:00 -6°C° 0 mm 2 mps 771 mmHg 69%
    23:00 -6°C° 0 mm 2 mps 771 mmHg 70%
    Show more